Location: Newark
(45.9167°N, 5.5000°E)
Time: 14:01:42
(UTC+00:00)

ISS - Pass Details

Date: 20 January 2020
Orbit: 415 x 423 km, 51.6° (Epoch: 01 March)

Event Time Altitude Azimuth Distance (km) Brightness Sun altitude
Rises 18:48:53 0° 227° (SW) 2,370 0.8 -24.6°
Reaches altitude 10° 18:51:00 10° 222° (SW) 1,507 -0.4 -24.9°
Enters shadow 18:52:19 21° 213° (SSW) 1,007 -1.5 -25.2°
